Wind_Speed
37 35 34 36 32 28 22 15 12 12 15 16 10 15 22 31 33 43 53 54 54 49 43 41 37 35 31 29 28 28 28 27 26 26 26 25 23 21 20 20 21 20 20
38 40 37 37 38 36 28 23 23 20 14 12 9 8 5 8 21 28 35 42 44 45 43 40 34 31 30 29 29 30 29 30 31 30 27 25 24 25 24 22 21 21 21
37 38 39 39 39 36 32 29 28 26 20 11 10 7 6 5 5 11 17 23 26 27 28 30 27 25 28 27 28 30 33 33 34 32 31 29 27 26 27 26 23 22 22
35 40 39 39 36 36 36 33 30 30 26 19 19 14 9 10 7 11 14 17 20 22 22 23 26 26 26 24 27 28 30 31 35 37 36 36 32 30 29 27 27 27 28
36 37 38 39 34 33 32 24 23 24 31 28 25 21 15 13 12 13 14 16 18 22 23 25 25 26 27 25 25 26 30 33 33 37 39 40 38 34 30 31 32 34 34
35 35 37 35 32 34 25 29 25 24 30 31 27 30 24 19 18 16 19 19 19 22 23 20 17 18 17 17 22 27 28 31 34 37 40 43 44 43 42 42 41 40 41
33 34 36 37 36 37 34 27 27 27 27 28 29 28 31 24 24 24 26 27 26 27 27 28 28 30 23 22 22 22 25 29 31 33 36 41 45 48 47 49 47 48 49
28 37 36 36 32 30 34 30 30 24 19 17 19 28 35 34 33 33 30 33 32 32 33 33 33 32 33 32 30 30 28 27 31 32 36 39 40 42 47 50 52 53 53
35 44 36 37 34 31 25 32 27 24 22 17 17 23 23 23 27 33 37 38 40 39 42 43 40 41 43 41 39 34 34 38 36 35 37 40 39 40 45 49 52 54 56
33 32 33 32 33 31 25 23 28 27 20 19 24 27 28 28 28 31 34 38 41 42 45 51 52 52 53 51 48 45 46 48 44 43 41 40 41 42 41 44 44 48 51
28 28 34 40 41 37 35 28 28 32 30 31 29 31 33 33 34 35 36 38 41 45 47 48 50 50 51 52 53 53 55 56 56 53 49 43 40 43 46 48 46 46 46
38 30 56 39 39 41 44 43 42 38 44 43 33 35 35 31 31 28 26 30 32 39 43 50 51 52 54 55 55 56 56 56 58 58 55 51 44 38 42 45 46 48 55
41 44 54 49 42 40 49 48 50 50 48 46 43 41 36 26 25 33 30 31 36 43 44 44 47 47 48 51 54 57 59 60 61 61 59 58 51 47 53 51 53 54 57
42 45 51 50 43 44 47 47 48 44 46 44 45 43 43 39 38 40 44 43 44 45 46 47 48 49 50 51 52 53 56 61 63 63 63 60 59 61 62 59 64 66 67
48 54 47 47 48 46 44 43 38 39 35 36 37 38 40 45 50 53 52 51 49 45 47 48 49 51 52 53 55 57 57 57 60 62 62 63 66 67 72 70 71 71 72
49 57 56 51 44 41 43 43 41 35 33 36 41 42 44 48 50 52 55 54 49 48 45 48 50 51 53 56 59 62 64 64 65 66 64 65 64 68 73 78 81 83 83
57 56 61 61 48 47 45 47 43 40 36 41 43 44 50 51 51 52 55 55 49 46 45 47 51 54 58 62 64 65 68 72 75 74 70 70 68 67 67 71 77 82 86
61 61 57 54 60 57 53 54 48 42 47 45 45 48 49 51 52 52 52 49 45 45 47 52 57 59 60 61 54 50 50 58 65 69 71 72 72 71 71 72 73 74 77
67 64 61 56 53 49 50 54 51 50 43 39 44 50 55 55 51 50 48 46 44 47 51 54 55 55 53 49 44 36 31 37 47 54 60 66 67 67 68 69 70 71 72
69 69 69 66 63 55 53 53 53 53 47 50 55 55 50 48 49 46 45 45 47 51 51 52 52 51 45 40 37 28 24 35 37 36 41 46 51 58 63 66 69 70 70
61 73 75 76 71 70 69 62 56 49 53 50 57 49 43 44 43 44 46 47 50 49 47 47 50 47 41 36 32 27 31 38 40 41 46 43 43 39 45 49 48 45 47
53 55 69 78 76 68 64 59 53 57 58 56 50 41 41 41 41 42 43 45 45 43 45 48 50 47 38 35 29 28 32 30 30 30 28 31 39 45 40 37 38 39 40
31 36 40 43 47 50 52 52 53 52 52 46 41 41 40 40 42 43 43 44 43 42 46 46 47 40 34 33 30 26 24 25 30 31 31 34 37 39 40 40 42 42 44
32 34 37 41 44 48 50 47 45 42 41 40 41 39 38 40 43 43 43 43 43 44 46 44 39 32 30 31 28 22 22 23 23 25 25 28 35 42 45 45 48 49 49
29 29 32 37 43 47 47 46 42 42 41 41 41 39 41 42 41 41 42 42 44 45 44 41 35 30 28 27 26 23 21 21 21 20 21 24 28 30 30 30 31 32 35
32 33 36 38 39 41 43 44 43 43 44 43 41 41 42 41 40 40 40 40 43 45 41 39 35 33 26 25 25 24 22 21 21 22 22 22 22 22 23 23 24 26 28
Wind_Direction
247 239 233 237 240 246 247 246 267 293 299 305 291 277 258 246 245 240 237 237 240 245 247 250 258 257 248 248 247 243 245 248 256 265 273 273 264 263 265 270 264 253 266
242 235 231 232 237 240 244 255 252 262 292 302 315 308 291 243 236 238 239 237 241 247 254 253 247 247 240 240 242 240 245 250 252 258 267 274 268 262 262 263 267 256 261
237 236 230 231 237 236 248 259 264 264 264 237 269 278 280 243 189 203 211 210 220 232 234 237 237 237 240 245 247 243 239 243 249 254 255 262 270 264 263 260 256 256 256
238 237 229 229 234 238 239 256 259 256 250 221 242 253 253 253 235 220 199 199 212 219 227 240 238 232 236 239 246 248 245 246 249 252 252 252 258 263 258 249 241 247 251
237 240 230 230 230 227 229 248 270 261 247 231 241 242 242 232 231 222 224 231 235 237 249 262 251 247 246 246 250 252 248 247 249 247 251 252 252 255 249 248 247 253 256
233 235 232 223 226 228 236 252 263 263 252 236 243 249 240 237 239 239 234 229 235 240 242 233 228 229 239 252 257 254 254 254 251 251 248 251 251 253 252 256 261 267 269
225 228 224 225 225 220 241 250 261 265 252 243 243 248 249 250 246 251 253 241 252 256 258 261 267 271 255 255 260 260 257 260 260 256 254 254 254 252 257 260 265 266 269
218 223 221 223 220 240 247 251 250 245 245 242 252 253 249 258 261 261 261 251 253 257 263 265 269 264 268 270 263 261 261 266 267 267 264 262 261 260 258 262 265 268 270
212 224 230 222 228 237 244 240 244 248 247 253 264 264 265 264 262 262 264 265 266 268 270 273 273 269 271 271 267 265 269 273 274 276 277 270 266 267 264 264 266 268 269
212 228 230 229 222 233 243 256 243 242 249 267 274 270 267 267 267 271 272 271 272 272 270 260 265 269 273 273 271 270 269 268 269 272 275 270 264 259 263 267 269 270 270
212 228 239 238 236 242 247 252 254 246 255 264 268 274 278 274 277 279 276 274 274 275 275 274 274 273 271 271 272 270 264 265 266 267 266 272 263 261 259 257 258 261 265
211 234 236 233 236 243 248 249 260 262 254 262 269 279 280 282 278 279 278 278 286 286 286 275 269 267 268 269 268 267 266 267 265 264 262 261 260 259 262 261 260 259 259
216 226 236 238 240 247 243 254 261 263 258 264 275 273 270 256 278 300 299 305 295 297 293 293 286 278 274 270 268 267 266 264 263 262 262 259 255 236 248 248 259 261 259
218 221 227 233 240 246 253 261 260 255 259 266 268 266 265 252 296 301 304 301 300 295 291 287 285 283 282 280 278 273 270 268 264 261 258 257 252 247 244 248 250 250 254
223 226 230 232 237 244 256 257 251 248 251 261 262 274 278 270 282 300 299 296 293 288 290 283 280 281 281 280 276 274 270 267 266 265 262 254 250 249 247 248 249 253 252
221 225 230 232 238 244 246 247 250 249 252 261 272 280 279 285 295 297 291 287 284 280 281 283 286 288 287 286 283 278 273 267 264 262 260 260 256 251 248 249 249 251 253
225 225 230 237 237 238 242 242 251 264 257 265 278 279 288 290 292 289 286 284 282 285 289 293 295 295 293 291 288 281 271 265 261 259 257 256 256 257 255 253 253 254 256
230 231 234 236 239 244 248 246 254 264 272 280 284 288 284 288 286 282 278 279 286 291 292 296 303 305 304 301 295 286 272 263 259 257 256 256 256 257 259 260 261 259 259
227 229 231 236 238 243 247 252 261 265 268 276 283 287 290 285 282 281 280 280 288 294 296 303 311 314 311 309 305 298 279 264 259 255 255 256 258 258 259 259 260 261 262
231 231 235 239 241 247 250 252 260 265 274 279 285 285 284 282 281 278 279 284 289 293 299 308 315 318 315 315 311 291 264 266 268 267 263 261 261 262 263 263 263 263 263
230 232 235 237 242 246 250 257 263 263 270 277 280 282 280 277 274 279 284 290 293 297 306 313 319 319 313 315 310 304 271 269 274 268 267 268 270 272 276 272 267 266 268
231 232 235 239 243 248 253 260 254 261 268 271 271 269 271 273 277 280 285 290 294 304 312 316 318 315 307 311 316 299 288 289 289 285 283 276 271 271 283 283 283 274 271
224 229 232 237 240 244 247 247 251 256 259 260 263 265 270 276 280 282 285 288 294 303 310 315 315 305 297 302 311 316 304 293 284 281 281 280 284 285 284 282 280 278 275
230 232 235 238 241 242 244 242 244 247 251 254 261 268 278 281 281 281 286 289 297 303 312 316 316 301 288 290 296 310 316 310 303 293 291 284 278 276 276 274 275 276 275
236 238 240 239 240 242 243 245 246 248 252 258 265 274 279 280 279 283 285 291 299 305 312 319 317 302 288 285 290 294 308 320 327 326 319 310 304 304 304 303 301 299 294
244 244 246 247 248 248 250 251 251 252 257 263 268 272 275 277 279 284 287 293 300 307 314 319 315 306 292 288 292 288 292 301 305 309 313 316 318 321 324 323 317 312 307
Height
10921 10925 10928 10931 10932 10933 10934 10934 10934 10933 10932 10932 10930 10927 10924 10925 10927 10929 10933 10940 10947 10954 10958 10961 10964 10966 10967 10967 10969 10971 10973 10975 10977 10979 10979 10979 10979 10979 10979 10979 10980 10979 10979
10912 10915 10919 10923 10925 10927 10928 10928 10929 10929 10928 10929 10928 10926 10923 10920 10920 10923 10927 10934 10942 10947 10951 10954 10957 10958 10958 10960 10961 10963 10965 10966 10969 10971 10972 10972 10972 10973 10972 10973 10973 10974 10973
10904 10906 10909 10913 10918 10923 10926 10926 10926 10925 10925 10925 10925 10925 10924 10922 10921 10920 10922 10928 10935 10940 10943 10945 10947 10950 10950 10953 10955 10954 10955 10957 10959 10962 10964 10966 10965 10964 10965 10965 10966 10967 10966
10896 10897 10900 10906 10913 10916 10917 10919 10918 10919 10921 10921 10921 10923 10923 10924 10922 10923 10925 10927 10931 10934 10937 10939 10940 10941 10942 10944 10945 10946 10948 10949 10950 10952 10955 10958 10958 10958 10958 10958 10958 10958 10958
10887 10888 10895 10900 10904 10905 10910 10911 10911 10913 10915 10915 10917 10920 10921 10923 10924 10924 10925 10927 10928 10930 10931 10932 10933 10935 10936 10936 10937 10938 10939 10940 10941 10943 10945 10947 10950 10951 10951 10951 10950 10949 10949
10877 10881 10887 10892 10896 10898 10902 10902 10905 10905 10908 10909 10911 10914 10918 10920 10922 10922 10923 10924 10925 10926 10927 10928 10928 10928 10928 10928 10929 10930 10931 10931 10932 10933 10935 10937 10939 10940 10942 10942 10941 10941 10940
10869 10872 10879 10883 10888 10891 10893 10895 10898 10901 10903 10902 10904 10908 10910 10914 10917 10918 10918 10918 10920 10921 10922 10923 10923 10923 10923 10922 10922 10923 10922 10923 10923 10924 10924 10926 10929 10930 10931 10929 10930 10929 10927
10864 10867 10871 10875 10880 10884 10886 10889 10893 10895 10896 10898 10898 10901 10905 10907 10908 10910 10911 10911 10911 10912 10912 10913 10914 10914 10914 10915 10915 10916 10914 10913 10914 10915 10915 10916 10918 10920 10919 10917 10916 10915 10914
10847 10857 10863 10867 10870 10874 10878 10881 10886 10889 10891 10891 10893 10896 10898 10900 10900 10901 10901 10901 10901 10901 10902 10903 10902 10902 10902 10904 10907 10906 10906 10903 10904 10904 10904 10904 10906 10906 10906 10904 10902 10902 10900
10847 10853 10858 10861 10863 10865 10868 10873 10877 10881 10883 10884 10887 10889 10891 10892 10893 10893 10893 10892 10891 10891 10890 10891 10891 10889 10889 10892 10893 10894 10892 10890 10892 10892 10893 10892 10892 10893 10894 10892 10891 10887 10887
10838 10846 10851 10853 10855 10858 10860 10864 10869 10874 10876 10878 10879 10881 10881 10881 10883 10883 10883 10881 10879 10877 10875 10876 10875 10875 10876 10876 10877 10876 10876 10875 10877 10877 10878 10878 10878 10878 10879 10880 10878 10877 10875
10825 10833 10848 10842 10843 10849 10853 10857 10861 10866 10869 10871 10872 10873 10874 10874 10873 10872 10870 10869 10869 10865 10864 10863 10862 10861 10860 10860 10859 10859 10860 10858 10858 10860 10862 10863 10865 10866 10865 10865 10865 10863 10861
10814 10818 10822 10829 10833 10837 10842 10848 10853 10857 10859 10862 10862 10864 10866 10866 10865 10863 10860 10859 10856 10850 10846 10845 10843 10843 10843 10842 10841 10840 10840 10840 10840 10841 10843 10847 10849 10850 10849 10849 10849 10848 10846
10807 10808 10813 10820 10822 10827 10832 10837 10843 10846 10850 10851 10853 10855 10854 10854 10853 10851 10848 10846 10844 10840 10834 10830 10827 10826 10824 10823 10821 10822 10822 10820 10822 10822 10823 10827 10828 10831 10832 10831 10829 10828 10828
10795 10800 10804 10808 10812 10816 10823 10829 10832 10836 10840 10843 10844 10845 10843 10844 10842 10839 10835 10833 10830 10826 10823 10819 10816 10812 10810 10808 10805 10804 10804 10803 10801 10802 10802 10805 10807 10808 10810 10811 10811 10810 10809
10781 10787 10793 10797 10800 10807 10815 10820 10824 10828 10831 10834 10834 10833 10830 10830 10828 10825 10822 10818 10815 10812 10809 10804 10801 10798 10794 10790 10786 10784 10783 10783 10781 10780 10782 10783 10785 10786 10787 10788 10788 10787 10790
10771 10778 10783 10789 10793 10800 10804 10809 10814 10818 10822 10822 10820 10819 10815 10815 10813 10809 10805 10800 10798 10797 10793 10789 10785 10781 10775 10769 10761 10755 10752 10752 10755 10757 10759 10760 10762 10763 10764 10765 10766 10767 10767
10762 10768 10773 10777 10782 10788 10794 10799 10803 10807 10810 10809 10806 10805 10799 10797 10796 10793 10790 10787 10784 10781 10778 10773 10765 10760 10753 10742 10733 10726 10722 10723 10728 10733 10735 10737 10740 10743 10744 10743 10744 10747 10745
10752 10756 10762 10767 10772 10777 10783 10788 10791 10795 10797 10795 10794 10791 10787 10783 10780 10779 10778 10774 10772 10768 10762 10756 10749 10742 10731 10720 10712 10709 10708 10707 10708 10711 10714 10718 10720 10721 10720 10721 10722 10723 10724
10738 10745 10752 10756 10761 10767 10770 10775 10780 10781 10781 10780 10779 10776 10772 10768 10767 10766 10764 10762 10759 10756 10749 10741 10734 10728 10721 10712 10704 10700 10699 10696 10697 10698 10699 10700 10700 10700 10701 10702 10703 10702 10702
10728 10734 10738 10743 10750 10754 10757 10763 10765 10766 10767 10765 10765 10762 10759 10757 10756 10753 10751 10748 10745 10740 10735 10728 10721 10715 10709 10703 10698 10694 10691 10689 10689 10689 10688 10687 10686 10686 10686 10686 10685 10684 10683
10716 10720 10725 10730 10735 10739 10743 10746 10748 10751 10752 10751 10750 10749 10748 10747 10744 10742 10740 10737 10732 10727 10721 10715 10709 10702 10698 10694 10690 10685 10682 10680 10678 10677 10676 10675 10674 10673 10673 10672 10671 10669 10667
10703 10707 10712 10716 10720 10724 10727 10729 10732 10734 10736 10736 10737 10737 10735 10733 10732 10730 10728 10725 10721 10717 10714 10709 10701 10694 10689 10686 10682 10677 10673 10671 10669 10666 10665 10663 10662 10661 10660 10659 10658 10656 10654
10692 10695 10699 10703 10707 10710 10713 10716 10720 10721 10723 10724 10725 10724 10722 10721 10719 10718 10715 10712 10708 10706 10703 10698 10691 10685 10681 10679 10677 10673 10669 10665 10661 10659 10656 10654 10653 10650 10648 10646 10644 10642 10639
10681 10684 10688 10691 10695 10698 10701 10705 10708 10711 10712 10713 10712 10710 10710 10709 10708 10705 10702 10699 10696 10693 10690 10687 10681 10676 10673 10671 10670 10667 10664 10661 10657 10653 10650 10647 10644 10641 10638 10635 10632 10628 10624
10672 10675 10678 10680 10683 10687 10691 10694 10697 10699 10699 10699 10699 10699 10698 10696 10694 10693 10691 10688 10683 10680 10678 10675 10672 10668 10666 10664 10663 10661 10658 10655 10652 10649 10646 10642 10639 10635 10632 10628 10624 10620 10616